DIRECTV 14

Last updated on Tue Sep 16 2025 00:02:48 GMT+0000 (Coordinated Universal Time)

1 40333U 14078B 25258.56490253 .00000000 00000+0 00000+0 0 9997 2 40333 0.0211 143.3473 0000566 121.1777 194.3836 1.00268870 39296
UTC large
Height (km)
Speed (km/s)
/
Latitude / Longitude
Inclination (degrees)
Orbital Period (minutes)
Azimuth
Elevation
Range (km)
Doppler Factor

Next 0 passes for location: London (51.5072 / 0.1276)

Sorry there are no passes over London.